NAVSTAR 84 (USA 545)

Satellite information

Favourite Embed

Satellite Type and Status

PAYLOADIN ORBIT

Key statistics

Satellite NAVSTAR 84 (USA 545) at a glance.

Uptime

197

Days in orbit

Revolutions

≈ 2.0

Per day

Orbit

MEO

Medium Earth Orbit

Inclination

55.1

Latest

Satellite identification and parameters

Extended collection of information and parameters for NAVSTAR 84 (USA 545).

Object identification

Identified? True

Debris? False

Object name: NAVSTAR 84 (USA 545)

International designator: 2025-116A

Object number (NORAD): 64202

Object ID (CCSDS): 64202

Country: UNITED STATES OF AMERICA (US)

Current information (Y/N): Y

RCS size: LARGE

Orbital parameters

Period: 717.996 minutes

Inclination: 55.1053 deg

SMA: 26560.814 km

Apoapsis: 20197.447 km

Periapsis: 20167.91 km

RAAN: 38.6656 deg

Eccentricy: 0.00055602

Argument of periapsis: 307.8472 deg

Mean anomaly: 53.3313 deg

Mean motion: 2.00558325 rev/day

Mean motion (dot): -0.00000097 rev/day2

B* drag term: 0.0 1/REarth

Two-line elements (TLE)

Creation date: Dec. 12, 2025, 10:14 a.m.

Reference frame: TEME

Reference center: EARTH

Epoch: Dec. 12, 2025, 2:49 a.m. UTC

TLE line 0: 0 NAVSTAR 84 (USA 545)

TLE line 1: 1 64202U 25116A 25346.11800625 -.00000097 00000-0 00000-0 0 9999

TLE line 2: 2 64202 55.1053 38.6656 0005560 307.8472 53.3313 2.00558325 4121

Live tracking on map

Real-time ground track for satellite NAVSTAR 84 (USA 545).

In-orbit conjunctions

There are no conjunctions computed for NAVSTAR 84 (USA 545), at the moment. Check back to stay up to date, as we update our databases every day.

Go to all conjunctions

Associated space launch

Eighth of ten GPS III missions.

NAVSTAR 84 (USA 545) was lifted into orbit during the mission ‘Falcon 9 Block 5 | GPS III SV08’, on board a Falcon 9 space rocket.

The launch took place on May 30, 2025, 5:37 p.m. from Space Launch Complex 40.

For more information about the launch, click the button.

Launch to space Falcon 9 Block 5 | GPS III SV08
Falcon 9 Block 5 | GPS III SV08

Agency: United States Space Force

Status: Launch Successful

Launch date: May 30, 2025, 5:37 p.m. UTC

Rocket: Falcon 9

Launch pad: Space Launch Complex 40

Location: Cape Canaveral SFS, FL, USA

...

Latest news about this satellite

News about space launch
SpaceX launches latest GPS III satellite for U.S. military

GPS III SV-08, built by Lockheed Martin, is the eighth of 10 GPS III spacecraft. The post SpaceX launches latest GPS III satellite for U.S. military appeared first on SpaceNews.

News about space launch
Live coverage: SpaceX to launch GPS III-7 mission on Falcon 9 rocket from Cape Canaveral

The mission represents a short turnaround time for a national security mission, launching just three months after getting the call up from the government. SpaceX is targeting liftoff from pad 40 at 1:23 p.m. EDT (1723 UTC).

News about space launch
SpaceX to launch another GPS III satellite in record turnaround

The launch of GPS III SV-08 — the eighth satellite in the GPS III constellation — was originally assigned to United Launch Alliance (ULA) The post SpaceX to launch another GPS III satellite in record turnaround  appeared first on SpaceNews.


Newsletter sign-up

Weekly statistics, charts and insights to help you stay on top of the space industry.